RH
74 82 86 88 88 86 83 82 81 79 76 73 70 66 59 51 40 28 20 23 25 26 27 27 27 27 28 29 31 34 37 40 43 46 49 52 55 57 59 60 60 60 59 58 57 56 55 57 61 64 61 60 60 60 58 55 60 66 69 70 70 68 63 63 73 84 89 91 86 78 67 71 73 71 63 63 72 81 80 82 91 99 99 96 96 97 98 95 96 98 99 94 91 88 84 81 75 77 94 97 92 81 65
66 72 78 82 82 81 78 76 74 72 70 67 63 58 52 46 35 25 21 24 26 27 27 27 28 28 29 31 34 36 38 41 44 47 51 54 57 59 61 61 60 59 58 57 56 55 54 59 66 68 62 60 65 69 67 59 59 63 71 68 66 61 50 56 69 84 95 96 96 89 74 68 65 66 71 78 86 92 94 89 89 92 94 92 94 96 96 94 96 99 99 96 96 96 90 88 79 76 94 98 96 88 73
60 64 69 73 75 76 74 70 67 64 63 58 53 50 48 40 31 24 23 26 27 27 27 27 28 29 30 33 35 38 40 42 45 48 51 55 58 60 61 61 60 59 57 56 55 54 53 61 72 76 66 60 70 79 72 60 55 54 56 66 60 48 40 48 61 76 90 92 94 94 88 78 77 81 84 89 90 91 100 97 90 86 94 96 98 99 99 99 98 97 92 94 97 97 92 96 86 78 85 90 92 89 82
58 57 60 64 66 68 67 64 61 59 56 51 48 46 44 35 28 25 28 27 27 27 27 27 28 30 31 34 36 39 41 44 47 50 53 55 57 59 61 61 60 59 57 56 56 55 55 59 67 72 68 60 58 57 54 51 51 51 51 58 49 38 38 45 53 61 71 78 83 86 86 90 93 96 96 87 81 83 96 99 94 92 99 100 99 99 99 98 94 89 84 91 94 96 98 97 92 91 97 96 98 97 92
58 53 53 56 58 59 60 59 57 55 52 50 48 44 38 31 27 27 30 29 28 27 27 28 29 31 32 35 37 39 41 44 48 51 54 56 58 60 61 62 61 61 60 59 59 59 60 61 68 71 63 59 56 54 51 50 50 50 50 63 51 36 39 50 55 58 60 63 66 67 67 80 86 90 94 81 70 68 80 95 98 98 100 98 95 95 98 95 95 96 96 97 98 98 99 97 97 99 100 100 100 98 94
57 52 50 51 53 54 55 56 55 54 53 51 46 39 32 29 27 27 31 31 30 29 27 28 30 32 34 36 38 39 41 43 46 50 53 56 58 60 61 62 62 62 61 60 61 63 68 72 73 71 70 60 55 52 49 48 49 49 47 54 44 34 38 56 68 73 75 77 74 71 76 70 74 83 91 85 75 68 72 93 98 98 99 98 92 88 92 92 96 100 100 100 100 99 97 97 98 100 100 100 100 96 88
57 53 51 51 52 53 54 55 55 55 54 49 41 33 29 27 28 30 31 31 31 30 28 29 32 34 36 38 39 40 41 43 44 47 50 52 54 56 57 59 60 61 62 62 62 65 73 76 72 65 64 57 53 50 48 45 44 44 42 37 33 31 34 57 71 80 86 87 85 86 93 84 80 84 97 96 94 90 83 96 99 98 96 94 90 86 81 85 92 100 100 100 100 99 97 96 96 98 100 100 98 94 87
55 54 52 52 53 54 55 56 56 55 51 43 35 30 27 27 29 31 31 31 31 31 30 32 35 37 39 40 41 42 42 43 43 44 46 47 49 51 52 54 57 59 61 62 62 63 65 71 68 62 58 54 51 49 47 45 42 40 39 34 32 31 32 52 70 84 91 90 89 89 92 88 88 91 99 99 99 97 92 92 92 92 91 91 90 88 84 81 88 96 100 100 100 100 99 97 96 95 97 96 94 90 85
52 52 53 54 55 56 56 57 56 52 44 36 31 28 27 28 30 31 31 31 32 32 33 35 38 40 41 42 42 43 43 43 43 43 44 44 45 47 49 51 54 56 58 59 60 59 59 61 61 59 54 51 48 47 47 46 43 38 35 32 30 31 33 44 66 86 90 92 92 89 84 86 84 84 94 97 96 92 85 91 91 87 81 83 84 84 86 81 76 78 98 99 99 99 98 99 97 94 92 90 87 84 77
47 49 52 54 56 57 57 56 52 46 38 35 32 31 29 31 31 32 33 32 33 34 36 39 42 43 43 43 43 43 43 44 43 43 43 43 44 45 47 49 51 53 55 56 55 54 53 54 55 53 49 46 44 43 44 44 41 38 35 31 30 31 32 36 59 83 88 92 90 86 84 84 84 86 86 88 86 85 84 87 84 80 81 81 82 81 77 85 84 82 91 93 93 94 97 98 99 98 95 90 87 84 81
42 46 50 53 55 56 55 51 46 42 40 43 42 38 35 34 33 34 35 35 35 37 40 43 44 45 44 44 44 44 44 44 44 44 44 44 44 45 47 49 50 51 52 51 51 49 48 49 50 48 45 43 41 40 40 40 40 38 35 32 30 30 30 36 58 82 94 90 89 88 86 86 82 79 84 83 81 80 82 88 92 92 88 88 88 87 84 86 85 82 78 80 80 81 84 92 95 96 94 92 90 87 84
40 43 47 50 51 51 48 44 41 41 47 49 48 44 39 36 36 36 37 37 39 41 44 45 46 45 45 45 45 45 45 45 45 45 45 45 46 46 47 48 49 49 48 47 46 45 45 47 47 46 44 41 38 37 36 37 37 36 34 31 30 29 28 44 62 80 94 91 87 85 87 87 84 84 90 92 86 79 76 92 97 95 90 92 94 92 85 81 78 74 70 69 68 69 73 79 83 85 86 85 84 82 78
38 41 43 44 44 43 40 37 37 41 49 51 49 45 40 38 38 39 40 41 43 44 46 46 45 45 44 44 44 45 45 45 46 46 46 46 46 46 46 46 46 45 44 44 43 43 44 46 46 44 42 38 35 33 32 33 33 33 31 29 29 28 27 51 72 88 93 85 85 88 90 90 90 92 99 98 88 78 80 95 98 94 89 94 97 94 84 74 68 64 63 62 61 61 64 70 73 74 75 74 72 70 68
37 38 38 38 37 35 33 33 36 40 47 46 44 42 40 39 40 41 42 44 45 46 46 45 44 43 42 43 43 43 44 44 45 45 45 45 44 44 44 44 43 43 42 42 43 43 43 43 42 40 37 35 32 31 30 32 32 30 29 29 29 28 28 57 77 88 88 87 90 93 94 96 97 98 97 97 88 80 84 96 99 96 90 96 98 94 80 71 65 60 55 53 52 54 58 62 64 66 68 67 66 64 63
36 35 34 33 31 30 30 33 35 38 42 41 40 40 39 40 41 43 44 46 47 47 45 43 42 41 41 41 41 41 42 42 42 42 42 42 42 42 42 41 41 41 40 41 42 42 41 39 37 35 33 32 31 30 30 32 31 29 28 28 28 30 34 60 73 82 92 92 92 94 95 95 94 92 88 85 80 76 80 94 100 98 93 96 95 90 77 75 71 66 58 52 48 45 47 49 51 53 56 58 60 60 61
33 32 31 29 28 29 30 33 35 36 37 37 39 40 40 41 42 43 45 47 47 46 44 43 41 40 39 39 39 39 40 40 40 40 40 40 40 40 40 39 39 39 39 40 40 39 37 35 33 31 30 30 30 30 30 30 28 26 26 25 27 30 37 57 73 85 94 92 92 93 93 90 85 83 85 78 75 76 81 94 99 98 95 93 90 86 82 81 79 74 68 60 53 48 44 43 43 43 44 46 48 49 50
29 29 28 28 29 30 32 32 34 35 35 36 38 40 40 42 43 44 46 48 47 45 43 42 41 40 39 39 39 39 39 39 39 39 39 39 39 39 39 39 38 38 38 38 37 35 34 32 31 30 29 29 29 28 28 26 25 23 23 23 25 30 38 52 73 88 87 89 90 90 92 86 82 84 94 86 82 84 89 93 97 99 96 92 89 87 87 85 82 78 72 64 57 51 47 44 43 42 41 42 41 41 40
27 27 27 29 31 33 34 34 35 35 35 36 37 39 40 41 43 45 47 47 46 44 43 43 42 40 39 39 39 40 41 41 41 40 40 40 40 40 39 39 38 38 37 36 34 33 31 30 30 29 28 27 27 26 25 23 21 20 20 21 25 32 44 49 66 82 80 89 92 92 93 86 86 90 99 94 90 91 94 92 95 96 94 90 89 87 84 82 78 74 68 62 56 50 46 44 42 39 38 38 37 36 34
28 28 29 31 34 35 36 36 36 35 34 35 36 38 39 41 44 46 48 46 45 44 44 44 43 42 40 40 40 41 42 42 42 42 42 42 41 40 39 39 38 37 35 34 32 31 30 29 28 27 25 24 24 23 22 19 18 19 19 20 27 38 54 51 63 78 84 90 93 95 95 87 85 87 91 88 84 84 88 90 91 90 86 82 79 76 73 70 67 63 59 54 49 45 42 41 39 36 33 32 31 30 29
30 30 31 33 35 36 36 37 37 35 33 34 35 37 39 42 45 47 47 46 45 45 45 45 44 43 42 41 41 41 41 42 42 42 42 42 41 39 38 37 36 35 34 33 31 30 29 27 25 23 21 20 21 22 20 18 17 18 19 22 36 53 65 59 69 82 82 86 90 93 92 82 76 72 74 74 71 71 76 79 80 78 74 70 66 63 61 59 56 52 47 43 40 38 37 36 35 32 29 26 25 23 22
31 32 33 33 34 35 36 38 38 35 33 33 35 36 38 43 46 48 47 47 46 46 46 46 45 45 44 43 43 43 42 41 41 41 40 39 38 37 36 35 35 34 33 32 30 28 26 23 21 19 18 18 20 22 19 17 16 18 19 26 48 68 69 64 72 80 80 84 84 83 82 77 71 66 66 67 67 66 67 68 68 66 63 60 57 55 53 49 45 40 35 33 32 31 31 30 29 27 24 22 19 17 16
36 38 39 37 36 36 38 40 42 42 36 34 36 40 42 44 46 48 47 47 48 48 48 47 47 46 45 45 44 43 43 42 41 40 39 38 38 37 36 36 35 34 33 30 27 24 21 19 18 17 16 16 18 20 17 16 16 17 19 26 44 62 66 68 71 74 76 80 78 75 73 73 71 68 64 64 63 62 61 61 60 58 56 53 51 49 47 42 36 31 26 25 25 25 24 23 22 20 18 16 15 13 12
35 41 47 48 46 45 49 45 46 47 42 36 40 48 50 46 46 47 48 48 49 50 50 49 48 47 47 46 45 45 43 43 42 41 40 39 39 38 38 37 35 33 30 26 23 20 19 18 17 16 15 15 17 17 15 15 16 17 19 24 37 52 61 68 69 68 70 72 71 68 67 68 66 64 62 59 57 56 55 54 53 52 53 49 46 43 41 37 32 26 22 20 19 18 17 17 15 14 13 12 11 10 10
31 36 45 50 53 55 57 48 45 44 41 35 41 48 49 45 45 47 47 48 49 51 51 51 50 50 49 48 48 47 46 45 44 43 42 41 41 40 38 36 33 29 25 22 20 19 18 17 16 15 15 15 15 15 14 15 16 17 18 22 33 45 53 60 63 64 66 65 65 64 62 62 60 59 56 53 52 52 52 51 50 48 48 44 40 36 32 29 25 21 17 16 14 14 13 12 12 11 11 10 10 10 9
28 31 37 47 51 53 53 46 45 45 42 35 37 41 43 43 43 45 46 48 49 51 52 52 52 52 51 51 51 50 49 48 46 45 44 43 42 40 37 33 29 25 22 21 20 19 18 17 16 15 15 15 15 14 14 14 15 16 18 20 27 37 49 57 60 60 61 60 60 59 57 56 54 52 50 49 48 48 47 44 41 38 36 33 30 26 23 20 18 16 14 13 12 11 11 11 11 10 10 9 9 9 8
26 28 33 43 47 48 50 46 47 48 46 39 35 36 41 42 43 44 46 47 49 51 52 53 54 54 54 54 54 53 53 51 50 48 46 44 41 38 34 30 26 23 22 21 20 20 18 17 16 15 14 14 14 14 14 14 15 16 17 18 22 29 42 51 54 54 54 54 53 53 51 51 48 46 45 43 40 38 35 32 29 26 24 22 20 18 16 15 14 13 12 11 10 10 10 10 10 9 9 8 8 8 8
26 27 30 38 43 45 46 46 47 48 44 39 35 34 39 41 42 43 45 47 49 51 53 54 55 56 57 57 57 57 57 56 53 51 48 45 41 37 32 28 25 23 22 22 21 20 19 17 16 15 14 14 14 14 14 14 15 16 17 18 19 22 28 34 40 43 45 44 44 43 43 41 40 38 36 32 29 27 24 22 20 19 18 16 16 15 14 12 11 11 10 10 9 9 9 9 9 8 8 8 8 8 8
29 28 30 35 40 44 45 46 45 43 40 36 34 34 38 40 42 43 44 47 50 52 55 56 58 59 60 60 61 61 61 59 57 53 50 45 40 35 30 27 25 24 23 23 22 21 19 17 16 15 14 14 14 14 14 14 14 15 16 17 18 19 21 25 29 33 35 35 35 34 33 32 31 29 26 24 22 21 20 18 17 16 15 14 13 12 12 11 10 10 9 9 9 9 9 9 8 8 8 8 8 8 8
31 30 33 36 38 40 42 45 46 43 38 33 32 34 36 39 41 43 45 47 51 54 56 58 60 61 62 63 64 64 64 62 59 55 51 45 40 35 30 26 25 25 25 24 23 21 19 17 16 14 14 14 14 14 13 14 14 15 16 17 17 18 18 20 23 25 28 29 29 28 27 26 25 23 22 22 21 20 18 17 16 15 14 13 12 11 10 10 10 10 10 9 9 9 9 9 9 8 8 8 8 8 8
30 32 37 36 35 35 36 41 45 45 39 33 32 33 35 39 41 43 45 49 52 55 58 60 61 63 64 66 66 67 66 64 61 57 52 47 41 35 30 27 26 26 26 25 24 22 19 17 15 14 14 14 14 14 13 14 14 15 15 16 17 17 17 18 19 21 22 24 25 25 24 23 22 22 21 20 19 18 17 16 15 15 14 12 12 11 11 11 10 10 10 10 9 9 9 9 9 8 8 8 8 8 8
28 32 39 37 34 32 34 37 41 43 37 33 32 33 35 38 41 44 46 50 54 58 60 61 63 64 65 66 68 68 68 66 63 59 54 48 42 35 30 27 27 27 27 26 24 22 19 17 15 14 13 13 13 14 13 14 14 15 15 16 16 17 17 18 18 18 19 20 21 21 21 21 20 20 19 19 18 17 16 16 16 15 14 13 13 12 12 12 11 10 10 10 10 10 9 9 9 8 8 8 8 8 8
26 32 46 38 34 32 33 35 39 42 38 34 32 33 34 38 41 45 47 52 56 60 62 63 64 65 66 68 68 68 68 68 65 61 56 49 42 35 30 28 28 28 28 27 25 23 20 17 15 14 13 13 13 14 14 14 14 14 15 15 16 16 17 17 18 18 18 19 19 19 19 18 18 18 18 17 17 16 16 16 15 15 15 14 14 14 13 13 12 11 11 11 10 10 10 9 9 9 9 8 8 8 8
26 32 51 39 33 31 33 34 36 38 39 35 33 34 34 38 42 45 49 53 58 61 63 64 65 66 68 69 69 69 70 70 68 64 58 51 43 36 31 29 29 29 29 28 26 23 20 17 15 14 14 13 13 14 14 14 14 14 15 15 16 16 16 17 17 17 18 18 18 18 18 17 17 16 16 16 15 15 15 15 15 15 15 15 15 14 13 13 13 12 12 12 11 11 10 10 10 9 9 9 9 8 8
30 34 45 41 35 30 32 33 35 37 38 35 35 35 35 38 42 47 51 55 59 61 64 65 66 67 68 70 71 72 73 72 71 67 61 52 44 37 32 30 30 31 30 29 26 23 20 18 16 14 14 14 14 14 14 14 14 14 15 15 15 16 16 16 16 16 16 16 16 16 16 15 15 14 14 13 13 13 13 13 14 15 15 14 14 13 13 13 13 12 12 12 12 12 11 11 10 10 9 9 9 9 9
41 40 45 44 38 33 30 31 34 35 35 36 36 36 36 39 43 47 52 56 60 63 65 66 67 68 69 71 73 74 75 75 74 71 64 54 45 37 32 31 31 31 31 30 27 24 21 18 16 15 14 14 14 14 14 14 14 14 15 15 15 15 15 15 15 15 15 15 15 14 14 14 13 12 12 11 11 11 11 12 12 13 13 13 13 13 12 12 12 12 12 13 13 13 13 12 11 10 10 10 9 9 9
50 48 49 47 48 44 32 30 32 34 35 36 37 38 38 40 43 47 53 58 62 65 66 67 69 70 72 74 76 76 77 78 78 74 68 57 47 39 33 32 32 32 32 30 28 25 21 18 17 15 15 14 14 14 14 14 15 15 15 15 15 15 15 15 15 14 14 14 13 13 12 12 11 11 10 10 10 10 10 11 12 12 12 12 12 12 12 12 12 12 12 12 13 13 14 13 12 11 10 10 10 9 9
56 55 55 54 54 51 38 31 31 32 34 35 37 39 40 41 43 48 54 60 64 66 67 69 70 72 74 76 76 76 78 80 81 78 71 60 50 40 34 32 32 32 32 31 28 25 22 19 17 16 15 15 14 14 14 14 15 15 15 15 15 15 15 14 14 13 13 13 12 12 11 11 10 10 10 10 10 10 10 11 11 12 12 12 12 12 12 11 11 11 11 11 12 12 13 13 12 12 11 10 10 10 9
58 60 65 63 59 53 44 35 31 31 31 34 37 39 40 41 44 48 55 61 65 66 67 70 71 73 74 75 76 76 79 82 83 81 75 64 52 42 34 32 32 32 33 32 29 26 22 19 18 16 15 15 15 15 14 14 14 15 15 15 15 15 14 14 13 13 13 12 12 11 10 10 10 10 10 10 10 11 11 11 11 11 11 11 12 12 11 11 11 10 10 10 11 11 12 13 12 12 11 10 10 10 9
60 62 69 69 67 63 55 43 35 30 29 32 35 38 41 43 45 49 56 62 66 67 68 70 71 72 74 75 76 77 80 84 84 83 79 68 57 45 35 33 32 33 33 32 30 27 23 20 18 17 16 15 15 15 14 14 14 14 14 14 14 14 14 13 13 12 12 12 11 10 10 10 10 11 11 11 11 11 11 11 11 11 11 11 11 11 11 11 10 10 10 10 10 10 11 12 12 12 11 10 10 10 10
62 64 70 72 71 68 63 52 41 32 28 31 34 38 41 45 47 51 56 62 66 68 69 71 72 73 74 74 76 78 81 84 86 85 82 73 61 49 38 34 33 33 34 33 31 28 24 21 18 17 16 16 15 15 14 14 14 14 14 14 14 13 13 13 12 12 12 11 11 10 10 10 11 11 11 11 11 11 11 11 11 11 11 11 11 11 11 11 10 10 10 9 10 10 11 11 12 12 11 11 10 10 10
62 63 65 68 68 66 64 59 48 35 28 30 33 37 42 46 49 52 56 62 66 68 70 73 74 74 74 75 76 78 80 84 86 87 86 78 66 53 41 36 34 33 34 34 32 29 25 22 19 17 16 16 15 15 15 14 14 13 13 13 13 13 13 12 12 12 12 11 10 10 10 11 11 12 12 12 12 12 12 12 12 12 11 11 11 11 11 10 10 10 9 9 9 10 10 11 11 11 11 11 10 10 10
60 61 61 64 65 64 61 60 51 39 30 30 33 37 42 47 51 55 57 61 65 68 71 74 76 76 76 76 78 80 81 84 87 89 89 82 71 58 44 37 34 33 34 34 33 30 26 23 20 18 17 16 16 15 15 14 14 13 13 13 13 13 13 12 12 12 12 11 11 10 11 11 12 12 13 13 13 12 12 12 12 12 12 11 11 11 11 10 10 10 9 9 9 9 10 10 11 11 11 11 11 11 11
57 58 57 61 64 64 59 60 52 42 33 32 34 37 42 48 53 58 60 62 64 67 70 74 78 79 78 78 79 81 83 85 87 90 91 86 76 63 49 40 35 34 34 35 33 31 27 24 21 19 18 17 16 16 15 14 14 13 13 13 13 13 13 13 12 12 12 11 11 11 11 12 13 13 13 13 13 13 13 12 12 12 12 12 11 11 11 10 10 10 9 9 9 10 10 10 11 11 12 11 11 11 11
56 58 59 62 64 64 60 59 52 43 37 36 36 38 42 49 55 60 63 64 65 66 68 73 78 81 81 81 82 83 85 87 88 90 92 90 82 69 55 44 37 34 34 35 34 32 28 25 22 20 18 17 17 16 15 14 14 13 13 13 13 13 13 13 13 12 12 12 12 12 12 13 13 14 14 14 14 13 13 13 12 12 12 12 11 11 11 10 10 10 9 10 10 10 10 10 11 12 12 12 12 12 12
57 62 66 67 68 68 66 61 53 44 39 39 39 40 43 50 57 62 66 66 67 68 68 71 76 81 84 84 84 85 86 87 88 90 94 93 86 76 61 49 40 36 35 35 34 32 29 26 23 21 19 18 17 16 15 14 14 14 14 14 14 14 14 14 13 13 13 12 12 12 12 13 14 14 14 14 14 14 13 13 12 12 12 12 11 11 10 10 10 10 9 10 10 10 10 10 11 12 12 13 13 14 14
59 62 65 66 68 70 71 67 60 51 44 42 41 43 45 52 59 64 68 68 69 70 70 70 74 78 84 85 86 87 88 88 89 91 93 94 90 82 69 55 44 38 35 35 35 33 30 27 24 21 19 18 17 16 16 15 14 14 14 14 15 15 15 14 14 13 13 13 12 12 12 13 14 14 15 15 14 14 13 13 13 12 12 12 11 11 10 10 10 10 9 9 10 10 10 10 10 11 12 13 14 15 16
65 64 64 66 69 72 75 74 72 66 56 49 45 45 47 53 59 64 67 68 70 71 72 72 72 75 80 84 87 89 90 89 90 91 93 94 93 88 77 62 50 40 36 35 35 34 31 28 25 22 20 18 18 17 16 15 15 15 15 15 15 15 15 15 15 14 13 13 12 12 12 13 14 14 15 15 15 14 14 14 13 13 13 12 12 11 11 10 10 10 10 9 9 10 10 10 10 11 11 13 14 15 17
74 71 70 70 72 75 78 80 81 79 73 62 54 50 49 52 57 61 65 67 69 71 74 74 73 73 76 81 85 88 91 91 92 92 93 95 95 92 84 71 57 45 37 35 35 34 32 29 26 23 21 19 18 18 17 16 16 15 15 16 16 16 16 16 15 15 14 13 13 13 13 13 14 15 15 15 15 15 15 15 14 14 14 13 13 12 12 11 11 10 10 10 10 10 10 10 10 10 11 12 13 15 17
82 80 77 77 77 79 81 84 85 86 84 76 67 59 53 53 55 60 64 68 71 73 76 76 75 74 76 79 83 86 90 92 93 93 94 92 92 92 90 77 63 50 40 36 35 34 32 29 26 24 22 20 19 18 18 17 16 16 16 16 16 16 16 16 16 16 15 14 14 13 13 14 15 15 16 16 16 16 16 16 15 15 15 14 14 13 13 12 12 11 11 10 10 10 10 10 10 10 10 11 12 13 15
88 86 84 82 82 83 85 87 88 88 88 86 80 71 61 56 56 59 65 71 75 78 80 80 79 78 78 80 82 85 88 92 93 93 93 91 89 88 88 82 70 56 44 39 36 34 31 29 27 25 24 22 21 20 19 18 17 17 17 17 17 17 17 17 17 17 16 15 15 15 15 15 16 17 17 17 17 17 17 17 17 16 16 16 15 15 14 13 13 12 11 11 10 10 10 10 10 10 10 11 11 12 14
90 89 88 88 87 87 88 89 90 90 90 92 89 82 71 63 59 59 64 73 78 80 80 82 82 82 82 83 84 84 86 90 92 93 91 89 86 82 78 76 69 60 49 41 37 34 32 29 27 26 25 23 22 21 19 18 18 17 17 17 17 17 18 18 18 18 17 16 16 16 16 17 17 18 18 18 18 18 18 18 18 18 18 17 17 16 16 15 14 13 12 11 11 10 10 10 10 10 10 11 11 12 13
90 91 90 90 90 91 91 92 92 92 92 94 94 90 82 72 65 61 62 70 76 78 77 80 82 84 84 86 86 84 84 89 92 94 93 88 85 83 81 74 63 53 48 43 39 36 34 31 29 28 26 24 23 22 21 19 18 17 17 17 17 18 18 18 19 18 18 18 17 17 18 18 19 19 20 20 19 19 19 19 19 19 19 19 18 18 17 16 15 14 13 12 12 11 10 10 10 10 10 11 11 12 13
88 90 92 92 92 93 93 94 93 93 94 94 95 94 90 81 72 64 60 64 69 72 72 74 79 84 86 87 87 86 84 88 92 95 98 88 84 85 89 77 61 46 39 36 36 37 38 36 34 32 30 28 26 24 23 21 20 19 18 18 18 18 19 19 19 19 19 19 19 19 19 20 20 21 21 21 21 21 20 20 20 20 20 20 19 19 18 17 15 14 13 13 12 12 11 11 11 11 11 11 12 12 13
84 88 92 93 94 94 95 95 94 95 95 96 97 97 96 89 79 69 60 59 61 63 64 69 76 82 87 88 87 86 84 86 91 95 98 96 91 85 82 76 63 48 39 36 35 35 37 38 38 38 38 34 31 27 25 24 22 21 20 19 19 19 19 20 20 20 19 20 20 21 21 22 22 22 22 22 22 22 21 21 21 21 21 21 20 20 19 18 16 15 14 13 13 12 11 11 11 11 11 12 12 13 14
78 84 91 93 95 95 94 94 94 95 96 96 98 98 99 95 87 76 64 57 53 53 57 64 72 80 86 88 87 86 85 85 88 93 97 97 96 90 80 72 64 55 46 40 37 36 37 36 36 36 38 38 35 31 28 26 25 24 22 21 21 20 20 20 20 20 20 21 22 22 22 23 23 23 24 24 23 23 22 22 21 21 21 21 21 20 19 18 17 16 15 14 13 13 12 12 12 12 12 13 13 14 16
75 81 88 92 94 95 94 94 95 95 96 96 98 99 99 98 93 84 71 60 52 49 52 60 68 76 82 85 86 86 84 84 86 90 95 96 97 95 88 74 63 54 47 42 40 39 38 36 34 34 36 39 38 35 32 30 28 26 25 24 23 23 22 22 21 21 21 22 23 23 23 24 24 24 25 25 24 24 23 22 22 22 21 21 21 20 19 18 17 16 16 15 14 13 12 12 12 13 13 14 14 15 16
73 79 84 88 92 94 94 94 94 94 96 96 97 98 99 98 97 92 81 66 57 51 51 58 66 73 79 83 86 86 84 83 83 86 91 94 96 96 97 89 76 62 52 46 42 40 38 35 35 35 35 39 39 36 34 33 31 30 28 27 26 25 24 24 23 23 23 23 23 24 24 25 25 25 26 26 25 25 24 23 23 22 22 21 21 20 20 19 18 17 16 16 15 14 13 13 13 13 14 15 16 16 17
72 77 81 85 89 92 94 94 94 94 94 95 96 98 99 99 98 95 89 76 66 58 54 58 65 72 78 83 87 89 87 84 82 82 87 92 95 96 97 97 95 88 72 58 46 38 36 36 36 35 33 36 38 38 36 34 33 31 30 29 28 28 26 26 25 25 25 24 24 24 25 25 26 26 26 26 26 26 25 24 24 23 22 22 21 20 20 19 18 17 17 16 15 14 13 13 13 14 15 16 16 17 17
73 78 82 86 89 92 94 94 94 93 92 93 95 97 99 99 98 97 95 87 78 68 61 61 66 72 78 84 88 90 90 85 82 81 84 90 93 96 97 97 97 96 93 77 59 44 38 37 37 36 34 34 36 38 39 36 34 32 31 31 30 30 29 28 27 27 26 26 26 25 25 26 26 27 27 27 27 26 26 25 24 23 22 22 21 20 19 19 18 18 17 16 16 15 14 14 14 14 15 16 17 17 18
75 80 84 88 90 92 94 96 95 93 91 90 92 94 96 98 98 98 98 95 89 81 72 68 70 74 80 85 88 89 89 86 83 81 81 87 92 94 96 97 98 98 98 90 75 59 45 41 39 37 36 36 35 36 38 38 36 34 33 32 31 31 30 30 29 29 28 27 27 26 26 26 27 27 27 27 27 26 26 25 24 23 23 22 21 20 19 19 18 18 17 17 16 15 15 14 14 15 15 16 17 17 18
77 82 86 88 90 92 94 96 96 94 91 88 88 88 90 92 96 98 99 98 95 91 85 80 77 78 83 87 89 88 87 87 85 82 80 84 88 92 94 96 97 98 98 95 84 70 53 46 41 39 37 37 36 35 35 37 37 36 35 34 33 32 31 31 30 30 29 29 28 28 27 27 27 28 28 28 27 26 26 25 25 24 23 22 21 20 19 19 18 18 17 17 17 16 15 15 15 15 15 16 16 17 17
Wind_Speed
14 13 11 11 11 11 11 11 9 7 6 5 4 3 2 2 3 4 5 7 8 9 10 10 10 10 11 11 11 11 12 12 12 12 11 11 11 10 9 9 8 8 8 8 8 9 9 11 11 9 7 7 6 6 6 7 8 8 8 9 8 6 4 5 7 8 7 6 6 5 5 5 5 4 4 5 6 6 5 4 3 3 4 4 4 4 5 5 5 5 3 3 4 4 4 3 2 1 2 3 4 4 3
14 13 11 11 11 11 11 10 9 7 6 5 4 3 3 3 3 4 5 6 8 8 9 9 9 9 10 10 10 10 10 10 11 11 10 10 10 9 8 8 7 7 8 8 8 9 9 11 10 8 7 7 6 6 6 7 8 8 8 8 7 6 5 7 8 8 7 6 5 5 5 5 5 5 5 5 4 4 4 4 3 3 3 3 4 4 4 3 3 3 2 4 4 4 3 3 2 2 2 2 3 4 2
13 13 12 12 12 12 11 10 8 7 6 5 5 4 3 3 4 4 5 6 7 7 8 8 8 8 8 9 9 9 9 9 10 10 9 9 9 8 7 7 7 7 7 7 8 8 9 10 9 7 7 7 7 6 7 7 8 9 8 8 7 6 6 7 8 8 6 5 4 4 4 6 6 6 5 3 1 1 2 4 3 3 4 4 5 6 5 3 3 3 3 3 2 2 1 1 2 3 2 2 2 2 2
13 13 13 13 12 12 11 9 8 7 6 6 5 4 4 4 4 5 5 6 6 6 7 7 7 7 7 8 7 8 8 8 8 8 8 8 8 7 6 6 6 6 6 7 7 8 8 9 9 7 6 7 7 7 7 8 8 9 8 8 7 7 7 7 7 6 5 4 3 3 4 5 5 5 4 2 2 2 1 3 5 6 6 4 4 5 5 4 5 5 4 2 1 1 2 3 4 4 3 3 3 3 2
14 14 13 13 12 12 11 9 8 8 7 6 5 4 4 4 5 5 5 6 6 6 6 6 6 6 6 6 6 6 7 7 7 7 7 7 6 6 6 5 5 5 6 6 7 8 8 9 8 6 6 7 7 7 8 8 8 8 8 7 7 7 7 7 7 6 5 4 4 3 3 3 3 3 3 3 2 2 3 2 5 7 6 4 2 3 4 6 7 7 5 3 3 5 8 9 10 10 10 8 7 6 3
14 14 13 13 12 12 11 10 9 8 7 6 5 4 4 5 5 5 5 5 5 5 5 5 6 6 5 5 5 5 5 6 6 6 6 6 6 5 5 5 5 5 5 6 7 8 8 7 5 4 5 7 7 7 8 8 8 8 7 6 6 6 7 8 7 7 6 5 5 5 3 2 2 3 4 5 5 4 3 4 4 4 4 3 2 2 3 5 8 10 11 11 10 8 9 10 10 10 10 8 7 6 4
14 14 13 13 12 12 11 10 9 7 6 5 4 4 5 5 6 6 5 5 4 4 4 5 5 5 5 4 4 4 4 5 5 5 5 5 5 4 4 5 5 5 5 6 7 8 7 5 3 4 6 7 7 7 8 8 7 7 6 6 6 6 7 7 7 6 6 6 6 5 5 3 2 3 4 4 4 4 4 4 3 1 1 2 3 3 3 3 6 9 12 14 12 9 7 6 4 4 7 5 4 4 4
15 14 13 13 12 12 11 10 8 7 6 5 5 5 6 6 5 5 4 4 3 3 3 4 5 5 4 4 4 4 4 4 4 4 4 4 4 4 4 4 5 5 5 5 6 6 6 4 4 5 6 7 7 7 7 7 7 6 6 5 5 6 6 6 6 5 4 4 5 4 4 4 3 3 3 3 2 2 3 4 4 5 5 4 4 3 2 1 3 5 4 5 6 6 4 3 2 1 3 2 2 1 1
15 14 14 13 12 12 11 10 8 6 5 5 5 6 6 6 5 4 4 3 3 3 3 4 4 4 4 3 3 3 3 3 3 3 3 3 4 4 4 4 4 5 5 5 5 5 5 5 5 5 6 6 7 7 7 6 6 6 5 5 5 5 5 5 5 4 3 3 3 3 3 4 3 1 0 1 3 4 4 4 5 6 6 5 4 3 2 1 2 3 4 2 2 2 1 0 2 2 2 3 3 4 4
15 15 14 13 12 12 11 10 8 6 6 5 6 6 6 5 5 4 3 3 3 3 3 4 4 3 3 3 3 3 3 3 3 3 3 3 3 3 4 4 4 4 4 4 5 5 5 5 5 5 6 6 6 6 6 6 6 5 5 5 5 5 4 4 4 4 3 2 2 3 3 4 3 2 2 3 4 4 4 4 4 5 5 4 4 3 2 1 1 1 1 3 3 3 3 3 3 4 4 5 5 6 8
15 15 14 13 12 12 11 9 8 7 6 6 6 6 6 5 5 4 4 3 3 3 3 3 3 3 3 3 3 3 2 2 2 2 2 3 3 3 3 3 4 4 4 4 4 5 5 5 5 5 6 6 6 6 6 6 6 6 6 6 6 5 4 4 4 3 2 2 2 3 4 4 3 3 3 4 4 3 2 1 1 2 3 3 2 1 1 1 1 2 2 3 4 5 5 5 6 6 7 7 8 8 9
15 14 14 13 12 11 11 9 8 7 7 7 6 6 6 5 5 4 4 4 4 4 4 3 3 3 3 3 2 2 2 2 2 2 2 2 2 3 3 3 3 3 4 4 4 4 5 5 5 5 6 6 6 6 6 6 6 6 6 6 6 5 4 3 3 2 2 2 2 3 3 4 3 3 2 3 4 3 1 1 1 1 3 4 4 2 1 1 0 2 3 4 5 6 6 7 8 9 9 10 10 11 11
15 14 13 13 12 11 10 9 9 8 7 7 7 6 6 6 5 5 5 4 4 4 4 3 3 3 3 3 2 2 2 1 1 1 1 2 2 2 3 3 3 3 3 4 4 4 5 5 5 5 6 6 7 7 7 7 7 7 7 7 6 5 3 3 2 2 1 2 3 3 3 3 3 1 0 2 3 3 0 3 3 2 2 4 4 2 1 1 1 2 3 4 5 6 7 8 8 9 10 11 11 12 12
15 14 13 12 12 11 10 9 9 8 7 7 7 6 6 6 6 5 5 5 4 4 4 3 3 3 3 3 2 2 1 1 1 1 1 1 2 2 2 3 3 3 3 4 4 4 4 5 5 5 6 7 7 8 8 8 8 8 8 8 6 4 2 2 2 1 1 2 2 2 1 1 0 1 2 2 2 2 1 4 5 4 4 5 4 2 1 2 3 3 4 4 5 5 6 7 8 9 10 11 12 12 12
14 14 13 12 11 10 10 9 8 7 6 6 6 6 6 6 6 5 5 5 4 4 4 4 3 3 3 3 2 2 2 1 1 1 1 1 1 2 2 2 2 3 3 3 4 4 4 5 5 6 6 7 8 9 9 9 9 9 9 8 6 3 1 1 1 1 1 1 1 1 1 2 3 3 4 3 3 2 2 4 6 6 4 4 3 1 2 3 4 5 5 6 6 6 6 7 7 8 9 9 10 11 11
14 14 13 12 11 10 10 9 8 7 6 6 6 6 5 6 6 5 5 5 5 4 4 4 4 3 3 3 3 2 2 1 1 1 1 1 1 1 1 2 2 2 3 3 4 4 5 5 6 7 8 8 9 9 9 10 10 9 8 7 5 2 0 1 1 1 1 1 2 2 3 4 4 3 2 2 3 3 4 4 5 4 3 4 3 4 5 5 6 7 7 8 8 8 8 8 7 7 7 8 8 9 9
14 13 13 12 11 10 10 9 8 6 6 6 6 6 6 6 5 5 5 5 5 5 5 4 4 4 4 3 3 3 2 2 1 1 0 0 0 1 1 2 2 2 3 3 4 4 5 6 7 8 9 10 10 10 10 10 10 9 8 6 4 1 2 2 2 2 1 1 2 3 2 3 1 1 2 2 2 3 5 6 5 4 4 4 5 6 7 7 8 8 9 10 10 10 10 9 9 8 8 8 8 8 9
14 13 13 12 11 10 9 8 7 7 6 6 7 7 6 6 5 4 4 5 5 5 5 5 5 4 4 4 3 3 2 2 1 1 1 0 0 1 1 2 2 3 3 4 5 5 6 8 9 9 10 10 10 10 10 10 9 8 7 5 2 1 3 3 3 2 2 1 1 1 1 1 3 5 6 4 4 4 6 7 7 6 5 6 6 7 8 9 10 10 11 11 11 11 11 10 10 9 9 8 9 9 9
14 13 13 12 11 11 9 8 8 7 7 7 7 7 6 6 5 5 5 5 5 4 5 5 5 5 4 4 4 3 2 2 1 1 1 1 1 1 2 2 3 3 4 5 6 7 8 9 9 10 10 10 10 10 10 9 8 7 5 3 1 2 3 4 4 3 3 2 1 1 2 2 4 6 5 4 3 3 5 6 7 7 6 7 8 9 10 11 11 12 12 12 11 11 11 11 11 10 10 9 9 9 10
14 14 13 13 12 11 10 9 8 8 7 7 7 7 6 6 5 5 5 5 5 5 4 4 4 4 4 4 4 3 3 2 2 2 2 2 2 2 2 3 4 4 5 6 7 8 9 10 10 10 9 9 8 9 9 8 7 6 4 2 1 3 4 5 4 3 4 3 3 2 3 3 4 5 4 4 3 3 4 5 6 7 8 9 10 11 11 12 12 12 12 11 11 11 11 11 11 11 11 11 10 10 10
15 14 14 13 13 12 11 10 10 9 8 8 7 7 7 6 6 6 6 6 6 5 5 5 4 4 4 4 4 4 3 3 2 2 2 2 3 3 3 4 5 6 7 8 9 9 10 10 9 9 8 7 7 7 8 7 6 5 3 1 2 4 5 6 5 4 4 5 4 4 4 3 3 3 4 4 4 5 5 6 7 8 9 10 11 12 12 13 13 12 12 11 11 11 11 11 11 12 12 11 11 10 10
15 15 14 14 14 13 12 12 11 10 9 9 8 8 7 7 7 7 7 7 6 6 6 5 5 5 4 4 4 4 3 3 3 3 3 3 3 4 4 5 6 7 8 9 9 10 10 9 9 8 7 6 6 7 7 6 5 4 3 2 3 4 5 6 6 6 6 6 6 6 5 5 5 6 6 6 6 7 7 8 9 10 11 12 12 12 12 13 13 13 12 11 11 10 10 10 10 11 11 11 11 11 10
16 16 15 14 14 14 13 13 12 10 9 9 9 8 7 7 8 8 7 7 7 7 7 6 6 5 5 4 4 4 4 4 3 3 4 4 4 5 5 6 7 8 9 9 10 9 9 8 8 7 7 6 6 6 7 6 4 3 3 3 4 5 5 6 6 8 9 8 8 8 7 7 7 8 8 8 8 8 9 10 10 11 12 12 12 12 12 13 13 13 12 11 10 10 9 9 9 10 10 10 10 10 10
17 17 16 16 15 14 14 14 13 11 10 9 9 9 8 8 8 8 8 8 8 8 7 7 7 6 5 5 5 4 4 4 4 4 4 4 5 5 6 7 8 9 9 9 9 9 8 8 8 7 6 6 6 6 6 5 4 3 3 4 5 6 6 6 7 8 9 9 9 9 9 9 9 10 10 10 10 10 10 11 11 12 12 12 12 12 11 11 11 11 11 10 10 9 9 9 9 9 9 9 10 10 10
17 17 17 17 16 16 15 15 14 12 10 10 9 9 9 9 9 9 9 9 9 8 8 8 7 7 6 6 5 5 4 4 4 4 5 5 6 6 7 8 8 9 9 9 9 9 8 8 7 7 6 5 6 6 6 5 4 3 3 4 5 6 7 7 8 8 9 10 10 10 10 10 10 10 11 10 10 10 11 11 11 11 11 11 11 11 10 10 10 10 10 10 9 9 8 8 9 9 9 9 9 10 10
18 18 18 18 17 17 15 15 14 13 11 10 10 10 10 10 10 10 10 10 9 9 9 8 8 7 7 6 6 5 5 5 5 5 5 5 6 7 7 8 8 9 9 9 9 9 8 8 7 7 6 5 6 6 5 5 4 4 4 4 5 6 7 7 8 8 9 9 9 10 10 10 10 10 10 10 9 9 10 10 10 10 10 10 10 10 10 9 9 9 9 9 8 8 8 8 9 9 9 9 10 10 10
20 19 19 19 18 17 16 16 15 14 12 11 10 10 11 11 11 11 11 11 10 10 10 9 9 8 7 7 6 6 5 5 5 5 6 6 6 7 8 8 8 9 9 9 9 9 9 8 7 7 6 5 5 6 6 5 4 4 4 5 6 7 7 8 8 8 8 8 9 9 9 9 9 9 9 9 8 8 8 9 9 9 9 9 9 9 9 9 8 8 8 8 8 8 8 8 8 9 9 9 10 10 10
21 20 20 20 19 18 18 17 16 15 13 12 11 11 11 12 12 11 11 11 11 11 11 10 10 9 8 8 7 7 6 6 6 6 6 6 6 7 8 8 8 8 9 9 9 9 9 8 7 7 6 6 5 6 6 5 5 4 5 5 6 7 8 8 8 8 8 8 8 8 8 9 9 9 9 8 8 8 8 8 8 8 8 8 8 8 8 8 8 8 8 7 7 8 8 8 8 8 9 9 9 9 9
21 21 21 21 20 19 19 18 17 16 15 13 13 12 12 12 12 12 12 12 12 12 11 11 10 10 9 8 8 7 7 7 6 6 6 6 6 7 8 8 8 8 9 9 9 9 9 8 8 7 6 6 6 6 6 6 5 5 5 5 6 6 7 8 9 9 9 9 9 8 8 8 9 9 9 9 9 9 8 8 8 8 8 8 8 8 8 8 8 8 8 8 7 7 7 7 8 8 8 8 9 9 9
21 21 22 21 21 20 20 19 18 17 16 15 14 13 13 13 13 13 12 12 12 12 12 11 11 10 10 9 9 8 8 7 7 7 7 6 7 7 8 8 8 8 8 9 9 9 9 8 8 7 7 6 6 6 7 6 5 5 5 6 6 6 7 8 8 9 9 9 9 9 9 9 9 9 9 9 9 9 9 8 8 8 8 8 8 8 8 8 8 8 8 8 8 8 8 8 8 8 8 8 8 8 9
22 22 22 21 21 21 21 20 19 18 17 16 15 14 14 14 13 13 13 13 13 13 12 12 11 11 10 10 9 9 8 8 8 7 7 7 7 7 8 8 8 8 9 9 9 9 9 8 8 8 7 7 7 7 7 6 6 6 6 6 6 6 7 7 8 8 9 9 9 9 10 9 9 9 9 9 9 9 8 8 8 8 8 8 8 8 8 8 9 9 9 8 8 8 8 8 8 8 8 8 8 8 8
23 22 22 22 22 22 22 21 20 19 18 17 16 15 15 14 14 14 14 13 13 13 13 12 12 11 11 10 10 9 9 8 8 8 8 8 8 8 8 8 8 8 9 9 9 9 9 9 8 8 8 7 7 7 7 7 7 6 6 6 6 6 7 7 8 8 8 9 9 9 9 9 9 9 9 9 8 8 8 8 8 8 8 8 8 9 9 9 9 9 9 9 9 9 9 9 9 9 9 9 9 9 9
23 23 22 22 23 23 23 22 22 20 19 18 17 16 16 15 15 15 14 14 14 14 13 13 13 12 12 11 11 10 9 9 9 9 9 9 8 8 8 8 8 8 9 10 10 10 9 9 8 8 8 8 7 7 7 7 7 7 7 6 6 7 7 7 8 8 8 9 9 9 9 9 9 9 8 8 8 8 8 8 8 8 8 8 8 9 9 9 9 10 10 11 11 11 10 10 10 9 9 9 9 9 9
24 24 23 23 24 24 24 23 23 22 20 19 18 17 16 16 16 16 16 15 15 15 14 14 14 13 13 12 12 11 10 10 9 10 10 9 9 9 8 8 8 9 9 10 10 10 10 9 9 8 8 8 8 8 8 8 8 8 7 7 7 7 7 7 8 8 8 9 9 9 9 9 8 8 8 8 8 7 8 8 8 8 8 9 9 9 9 9 10 10 11 11 12 12 12 12 11 11 10 10 10 10 10
24 24 24 24 24 25 25 24 24 23 21 20 19 18 17 17 17 17 17 16 16 16 16 15 15 15 14 13 12 12 11 10 10 10 10 10 10 9 9 8 8 9 9 10 11 11 10 10 9 9 9 8 8 8 9 9 9 8 8 7 7 7 7 8 8 8 9 9 9 9 8 8 8 7 7 7 7 8 8 8 8 9 9 9 9 9 9 10 10 10 11 11 12 13 13 13 13 12 12 11 11 11 11
24 25 25 25 24 24 25 25 25 24 23 21 20 19 19 18 18 18 18 17 17 17 17 16 16 15 14 14 13 13 12 11 11 11 11 11 10 10 9 9 9 9 10 11 11 11 11 10 10 9 9 9 9 9 9 9 9 9 8 8 8 8 8 8 8 9 9 9 9 8 8 7 7 7 7 7 8 8 8 8 9 9 9 9 9 10 10 10 10 10 11 11 11 12 13 14 14 14 13 13 12 12 12
25 25 26 26 25 25 26 26 26 25 24 22 21 20 20 20 19 19 19 18 18 18 18 17 16 16 15 15 14 13 12 12 12 12 12 12 11 10 10 9 9 10 10 11 11 12 11 11 10 10 10 9 10 10 10 10 9 9 9 8 8 8 9 9 9 9 9 8 8 8 7 7 7 7 7 7 8 8 8 9 9 9 9 9 9 10 10 10 10 10 11 11 11 12 13 14 14 14 14 14 13 13 13
25 25 25 25 25 26 26 27 27 26 25 23 22 22 21 21 20 20 20 19 19 19 18 17 17 16 16 15 15 14 13 13 12 12 12 12 12 11 10 10 10 10 11 11 12 12 12 11 11 11 10 10 10 10 10 10 10 10 9 9 9 9 9 9 9 9 9 8 8 8 7 7 7 7 7 7 8 8 8 8 9 9 9 9 9 9 9 10 10 10 11 11 11 12 12 13 14 15 15 15 14 14 14
25 25 24 24 24 25 26 27 28 27 26 24 23 23 22 21 21 21 21 21 20 20 19 18 18 17 16 16 15 15 14 13 13 13 13 13 12 11 11 10 10 10 11 12 12 12 12 12 11 11 11 11 11 11 11 11 10 10 10 9 9 9 9 10 10 9 9 8 8 8 7 7 7 7 7 7 8 8 8 8 8 8 9 9 9 9 9 9 10 10 10 11 11 11 12 13 14 14 15 15 15 15 15
24 25 24 24 23 24 25 27 28 28 27 26 25 24 23 22 22 22 22 22 22 21 20 19 19 18 17 17 16 15 15 14 14 14 13 13 13 12 12 11 11 11 12 12 13 13 13 12 12 11 11 11 11 11 11 11 11 10 10 10 10 10 10 10 10 9 9 9 8 8 8 7 7 7 8 8 8 8 8 8 8 8 8 9 9 9 9 9 10 10 11 11 11 12 12 13 13 14 15 15 15 15 15
23 24 24 24 24 25 25 26 27 28 27 26 26 25 24 24 23 23 23 23 23 22 21 20 20 19 18 17 16 15 15 15 14 14 14 14 13 13 12 12 12 12 12 13 13 13 13 13 12 12 12 11 11 11 11 11 11 11 11 10 10 10 10 10 10 10 9 9 9 9 8 8 8 8 8 8 8 8 8 8 8 8 9 9 9 9 9 10 10 10 11 11 11 11 12 12 13 14 14 15 15 16 16
23 24 24 25 24 25 25 25 27 28 27 27 27 26 26 25 24 24 24 24 24 24 23 22 21 20 19 18 17 16 16 15 15 14 14 14 14 14 13 13 13 13 13 13 14 14 14 14 13 13 12 12 12 12 12 12 12 11 11 11 11 11 11 10 10 10 10 10 9 9 9 8 8 8 8 8 8 8 9 9 9 9 9 9 9 9 10 10 10 11 11 11 11 11 12 12 13 14 14 15 15 15 16
24 24 25 24 24 25 26 25 26 27 27 27 27 27 27 26 25 25 25 25 25 25 24 23 22 21 20 19 18 17 17 16 15 15 15 15 15 15 14 14 14 14 14 14 15 15 15 14 14 13 13 12 12 12 12 12 12 12 11 11 11 11 11 11 11 10 10 10 10 9 9 9 8 9 9 9 9 9 9 9 9 9 9 10 10 10 10 10 11 11 11 12 12 12 12 12 13 14 14 15 15 15 16
24 25 25 25 24 25 26 26 26 26 26 27 28 28 28 27 27 26 26 26 26 26 25 24 24 22 21 20 19 18 17 17 16 15 15 15 16 16 15 15 15 15 15 15 15 15 15 15 15 14 13 13 12 13 13 13 13 12 12 12 12 12 11 11 11 11 11 11 10 10 9 9 9 9 9 9 9 9 10 10 10 10 10 10 10 10 10 11 11 11 12 12 12 12 12 12 13 14 14 15 15 15 15
25 25 25 24 24 24 25 26 26 26 26 28 29 29 29 28 28 28 28 28 27 27 26 26 25 24 23 22 20 19 18 18 17 16 15 16 17 17 16 16 16 16 16 16 16 16 16 16 15 14 14 13 13 13 13 13 13 13 13 13 12 12 12 12 12 12 12 12 11 11 10 10 10 10 10 10 10 10 10 10 10 11 11 11 11 11 11 11 11 12 12 12 12 12 12 12 13 13 14 14 15 15 15
26 25 25 25 24 25 25 26 25 25 26 28 29 30 30 30 30 30 29 29 28 27 27 27 26 25 24 23 22 21 20 20 18 17 16 17 18 18 18 17 17 17 17 17 17 17 17 17 16 15 15 14 14 14 14 14 14 13 13 13 13 13 12 12 12 12 12 12 12 12 11 11 10 10 10 10 11 11 11 11 11 11 11 11 11 11 11 11 11 12 12 12 12 12 12 13 13 13 14 14 14 15 15
26 26 26 26 25 25 25 25 25 25 26 27 29 31 31 31 32 31 31 30 29 28 28 27 27 26 26 25 24 23 23 22 20 18 18 19 19 19 19 18 18 18 18 18 18 18 18 17 17 16 16 15 15 15 15 15 14 14 14 14 13 13 13 13 13 13 13 13 13 13 12 12 12 11 11 11 11 11 11 11 11 11 12 12 12 12 12 12 12 12 12 12 12 12 12 13 13 13 14 14 14 14 15
26 26 26 26 26 26 26 26 26 25 25 27 29 31 32 33 33 33 32 31 30 29 29 29 28 27 27 26 26 25 24 23 21 20 20 20 20 20 20 19 19 19 19 19 19 19 19 18 18 18 17 17 16 16 16 15 15 15 15 14 14 13 13 13 13 14 14 14 14 14 13 13 13 13 12 12 12 12 12 12 12 12 12 12 12 12 12 12 12 12 12 12 12 12 12 13 13 14 14 14 14 15 15
26 26 27 27 27 27 27 27 27 26 26 26 28 30 32 33 34 33 32 31 31 30 30 30 29 28 28 27 27 27 26 24 23 22 21 22 22 22 21 21 20 20 20 20 20 20 20 19 19 19 18 18 18 17 17 16 16 16 15 15 15 14 14 14 14 14 14 14 14 14 14 14 14 14 14 13 13 13 13 13 13 13 13 12 12 12 12 12 12 12 12 12 12 12 12 13 13 14 14 15 15 15 15
26 26 27 28 28 28 29 28 28 27 26 26 27 29 31 33 34 34 33 33 32 32 32 31 30 29 29 29 29 28 27 26 24 23 23 24 23 23 22 21 22 22 22 22 21 21 21 20 20 20 20 19 19 18 18 17 17 17 16 16 16 15 15 15 15 15 15 15 15 15 15 15 15 15 15 15 14 14 14 14 14 14 13 13 13 13 13 13 13 12 12 12 12 12 12 13 13 14 15 15 15 15 15
26 27 27 28 29 29 30 29 29 28 27 26 27 28 30 33 34 35 35 34 34 34 34 33 32 31 30 30 30 30 28 27 26 25 26 26 24 21 19 19 20 22 23 23 23 22 22 22 22 22 21 21 20 19 19 18 18 18 18 17 17 16 16 16 16 15 15 15 16 16 16 16 16 16 16 15 15 15 15 15 14 14 14 13 13 13 13 13 13 13 13 13 13 13 13 13 13 14 15 15 15 16 16
26 27 27 28 29 30 30 30 30 29 28 27 27 28 30 32 35 36 36 36 36 36 36 35 34 33 32 32 32 31 29 28 27 26 27 26 24 23 21 19 17 16 18 20 22 23 23 23 23 23 23 22 21 20 20 20 20 19 19 18 18 18 18 17 17 16 16 16 17 17 17 17 17 17 16 16 16 16 16 15 15 15 14 14 14 14 14 14 14 14 14 14 14 14 14 14 14 14 15 15 15 16 16
27 27 28 28 29 30 31 31 31 30 29 29 28 28 29 32 34 36 36 37 38 38 37 36 36 35 34 33 33 33 31 29 28 28 27 26 25 25 24 21 16 12 11 10 12 18 23 25 25 25 24 23 22 22 21 21 21 21 20 20 19 19 19 18 18 17 18 18 18 18 18 18 18 18 17 17 17 17 16 16 16 15 15 15 15 15 15 15 15 15 15 15 15 15 15 15 15 15 15 15 15 15 15
28 27 28 28 29 30 31 32 32 31 31 30 29 29 30 31 33 35 36 37 38 39 38 37 37 36 36 35 35 34 33 31 30 29 29 30 29 26 23 20 17 15 17 13 9 10 16 21 24 26 26 24 23 23 22 23 23 22 22 21 21 21 20 19 19 19 19 20 20 20 19 19 19 18 18 18 18 17 17 17 16 16 16 16 16 16 16 16 16 16 16 16 16 16 16 16 16 16 16 16 16 15 15
29 28 28 28 29 30 31 32 32 32 32 31 31 31 31 31 32 33 35 36 37 38 38 38 38 38 37 37 36 36 35 33 32 31 31 31 30 28 22 20 20 21 21 17 14 12 12 15 18 21 24 24 24 24 24 24 24 24 23 23 22 22 22 21 20 20 21 22 21 21 20 20 20 19 19 19 18 18 18 17 17 17 16 16 16 16 17 17 17 17 17 17 16 16 16 16 17 17 16 16 16 15 15
30 29 28 28 28 30 31 32 32 32 32 32 32 32 32 32 32 33 34 35 36 36 37 38 38 38 38 38 37 37 36 35 33 32 32 32 31 30 27 23 20 16 12 12 15 16 15 15 15 16 21 24 24 24 26 26 26 25 25 24 24 24 23 22 22 22 23 23 22 22 21 21 21 20 20 19 19 19 18 18 18 17 17 17 17 17 17 17 17 18 18 18 17 17 17 17 17 17 17 17 16 16 16
31 30 28 27 27 28 30 31 32 32 33 32 32 32 33 33 32 32 33 34 35 36 36 37 38 38 38 38 38 38 37 36 35 34 33 33 32 31 32 31 27 21 17 13 12 14 17 19 15 11 15 22 23 23 25 26 26 26 26 26 25 25 24 24 24 24 24 24 23 23 23 22 22 21 21 20 20 19 19 19 18 18 18 17 18 18 18 18 18 18 18 19 18 18 17 17 17 17 17 17 16 16 16
30 30 29 27 26 27 28 30 31 32 32 32 31 32 33 34 33 33 33 34 35 36 36 37 37 38 38 38 38 39 39 38 37 35 34 34 33 33 33 34 35 34 30 23 17 14 16 17 15 13 11 16 20 22 24 24 25 25 26 26 26 26 26 25 25 25 25 25 25 24 24 23 22 22 21 21 21 20 20 19 19 18 18 18 18 18 18 18 18 19 19 19 19 18 18 18 17 17 17 17 17 17 17
29 29 28 27 27 27 27 28 30 31 31 31 30 31 32 33 34 34 34 34 35 36 36 37 38 38 38 38 39 39 40 39 39 37 36 35 35 34 34 35 35 35 35 33 29 24 21 17 15 15 14 11 15 20 23 23 24 25 25 26 27 26 26 26 26 26 26 26 26 25 25 24 23 23 22 22 21 21 20 20 19 19 18 18 19 19 19 19 19 19 19 19 19 19 18 18 18 17 17 17 17 17 17
28 28 28 28 28 27 27 28 29 29 29 29 29 29 30 31 33 34 35 35 35 36 37 38 38 38 39 39 39 40 40 40 39 39 38 37 37 36 36 36 36 36 36 35 34 33 31 26 22 19 18 14 12 14 19 23 24 24 25 26 26 26 26 27 27 27 27 27 26 26 25 25 24 23 23 22 22 21 21 20 20 19 19 19 19 19 19 19 20 20 20 20 20 19 19 18 18 18 18 18 18 18 18
27 28 28 29 29 28 28 28 29 29 29 29 29 29 29 30 31 34 35 36 36 37 37 38 39 39 40 40 40 39 39 40 40 40 39 38 38 37 36 37 37 37 37 36 36 36 35 35 32 28 24 20 16 12 13 18 23 24 25 26 26 26 26 27 27 27 27 27 27 26 26 25 24 24 23 22 22 22 21 21 20 20 19 19 20 20 20 20 20 20 21 21 20 19 19 18 18 18 18 18 18 18 19
Wind_Direction
151 149 145 142 143 147 153 160 167 173 179 186 193 196 186 158 139 130 123 119 117 116 113 110 107 104 101 100 100 103 106 108 109 110 111 111 111 111 110 108 105 100 95 92 90 88 86 82 79 76 74 75 74 73 71 72 73 73 70 71 75 80 77 73 68 59 45 37 30 27 33 36 33 26 26 31 38 40 31 12 356 6 17 0 342 328 320 322 323 322 329 7 18 16 11 12 12 17 19 353 338 332 342
152 151 150 150 152 155 158 163 167 172 178 184 188 189 180 162 149 141 136 131 127 122 116 111 106 103 100 98 99 102 106 108 110 111 112 113 114 114 113 110 104 98 93 91 90 89 87 83 79 74 69 69 71 71 69 69 70 71 72 70 72 77 75 70 68 63 50 45 33 18 15 22 26 29 30 28 40 51 39 15 4 14 30 20 12 4 350 329 325 335 351 11 10 4 4 6 357 345 343 339 334 328 324
154 153 155 157 159 161 164 166 168 173 177 181 183 183 176 166 158 153 147 140 134 126 116 110 106 103 100 99 101 103 105 107 108 111 113 115 117 117 114 110 103 97 93 91 90 89 86 85 83 75 64 65 69 71 69 67 65 63 62 61 62 64 65 67 71 70 60 56 48 30 17 20 23 28 30 17 357 38 72 61 64 61 41 41 43 41 33 13 1 7 7 12 348 324 336 42 13 358 350 342 347 333 275
158 156 158 160 162 164 166 167 169 172 175 179 182 183 179 173 167 160 151 144 137 128 119 114 109 105 101 101 102 104 104 105 107 109 112 114 116 116 114 109 102 97 93 92 90 86 81 80 82 78 61 62 65 67 67 66 62 57 54 52 50 49 53 58 65 69 64 61 51 34 22 25 27 22 13 340 291 291 354 63 80 74 50 52 52 46 41 39 30 20 4 338 292 277 131 106 76 54 70 101 130 161 226
161 158 159 161 162 164 165 167 169 173 177 182 186 188 186 178 167 155 146 137 132 127 121 116 112 107 103 103 103 104 103 104 105 107 109 111 113 112 110 106 100 95 91 89 85 80 71 66 72 74 57 58 59 59 60 59 56 52 48 47 41 38 39 44 48 49 44 34 23 14 15 26 24 12 358 340 320 309 321 35 78 77 48 43 43 41 41 56 54 45 36 64 106 113 112 102 88 83 92 110 132 147 153
161 159 158 160 162 163 164 166 170 175 181 187 193 194 185 166 153 145 140 135 128 120 115 111 107 105 104 105 104 102 101 102 103 104 106 107 107 107 104 100 94 87 82 80 80 78 73 65 63 64 56 53 52 52 52 51 50 46 41 39 34 30 33 35 35 34 32 26 17 12 14 11 15 15 7 1 353 340 337 26 72 92 56 32 19 27 45 72 77 74 75 87 102 116 117 113 97 81 79 97 115 118 106
159 159 159 160 162 163 165 168 172 178 185 191 194 186 166 151 143 139 137 134 123 109 103 98 97 98 101 102 100 98 97 96 97 97 98 99 99 97 94 89 82 76 71 69 72 79 85 84 62 45 45 46 46 46 45 44 43 39 35 27 23 25 29 32 32 31 28 22 18 19 24 16 27 38 27 24 9 352 352 16 32 31 307 330 348 10 37 83 101 97 88 87 91 103 117 128 118 71 57 69 94 105 91
162 162 162 163 164 165 167 170 172 174 177 177 172 163 153 148 145 141 137 132 122 107 96 89 88 91 96 95 94 91 88 88 87 87 87 88 87 84 80 76 69 66 61 60 63 71 82 85 59 38 36 37 38 38 38 35 32 28 23 17 15 17 23 28 30 29 30 20 19 23 24 18 30 58 61 60 47 4 335 329 318 307 303 309 316 330 356 78 144 154 134 88 76 82 102 137 157 79 39 23 357 347 16
166 166 166 167 167 169 171 172 171 169 168 166 163 160 155 151 148 144 138 133 130 117 95 87 88 91 94 92 90 86 82 79 76 75 74 74 73 70 67 63 60 57 55 52 52 55 60 58 46 34 29 29 30 31 31 25 20 15 8 4 4 8 14 26 31 30 25 24 16 7 2 2 5 16 90 291 294 293 291 300 305 306 309 308 303 300 305 291 220 217 231 266 335 16 21 328 239 247 274 296 301 302 305
169 169 169 170 171 172 175 175 173 169 164 160 161 162 161 159 154 148 142 145 141 121 99 94 95 99 98 95 91 84 79 75 70 67 65 64 62 60 57 56 53 50 48 47 45 44 44 41 34 26 21 19 20 20 19 14 8 0 351 349 353 359 7 26 36 35 26 18 354 333 333 335 339 333 285 273 279 286 288 292 306 317 323 318 308 292 264 257 204 179 235 264 278 294 306 299 275 263 270 278 286 291 295
169 170 171 173 174 177 179 180 174 166 161 162 163 166 167 168 163 153 145 147 137 118 106 107 109 111 108 102 97 90 82 75 69 64 60 58 57 55 53 51 48 47 45 43 40 39 37 32 25 17 11 9 7 6 3 359 352 343 333 336 342 349 358 19 32 36 34 26 343 321 322 325 322 317 317 298 292 293 296 288 340 0 358 2 13 14 235 220 220 232 258 269 272 275 280 282 278 275 278 280 281 284 289
170 171 172 174 177 180 183 182 176 167 163 167 170 170 168 167 165 159 153 143 129 116 115 120 123 121 118 112 107 99 91 85 75 65 58 54 52 50 49 49 46 45 42 40 38 34 29 22 14 5 359 355 353 351 348 343 335 326 321 325 332 339 351 12 27 37 38 4 316 302 315 316 323 332 334 313 313 313 300 128 110 50 33 53 60 66 98 113 210 270 274 278 276 272 271 275 277 278 280 281 281 282 285
170 171 173 176 179 182 184 183 178 171 169 174 176 173 168 166 165 162 155 141 126 120 123 128 128 126 120 117 114 111 107 102 90 70 57 50 48 46 47 47 44 43 39 36 31 26 19 8 359 352 345 341 339 337 335 330 322 315 316 321 326 333 348 18 37 39 5 321 314 313 316 326 342 4 194 273 302 318 147 125 116 87 70 85 91 96 92 68 9 332 315 302 293 283 275 275 278 280 282 282 282 283 283
172 173 175 178 181 182 183 183 181 178 177 180 179 173 167 166 167 165 159 143 130 127 130 132 130 126 120 118 116 116 114 114 100 82 59 50 45 45 43 42 40 36 31 27 20 12 3 352 344 338 334 330 327 327 326 321 314 312 315 320 323 328 349 42 66 52 343 328 329 329 323 355 330 247 235 246 270 281 168 129 118 106 104 118 128 131 68 13 356 346 341 332 322 310 292 284 282 284 286 286 286 285 283
175 176 178 180 181 181 181 182 185 187 186 184 181 177 171 170 171 169 163 148 140 140 140 137 132 127 121 119 117 119 118 113 108 90 68 54 47 43 39 35 30 25 21 14 5 355 345 336 332 328 325 322 320 319 319 314 310 311 315 319 320 323 352 64 97 103 46 320 302 293 276 243 246 258 268 258 246 226 185 142 120 114 130 157 174 212 316 327 329 331 332 328 326 320 310 301 296 294 292 291 289 287 286
178 180 181 182 182 181 181 185 188 191 192 186 184 184 180 179 179 174 164 155 152 152 147 142 137 132 128 125 123 122 120 119 114 101 81 62 48 36 29 23 16 12 7 0 350 338 330 325 323 321 319 317 314 314 313 309 308 310 314 317 316 309 178 136 122 122 152 232 264 278 286 271 269 273 276 247 217 190 178 167 146 142 186 216 245 278 297 305 312 317 320 321 321 319 316 312 309 305 302 299 296 295 293
181 182 182 182 181 182 186 191 193 193 192 186 186 189 191 188 184 176 165 163 163 160 153 147 142 138 135 133 130 128 128 128 127 131 124 90 37 22 11 8 2 358 351 344 334 327 322 319 317 316 315 314 312 310 309 306 308 311 313 316 311 270 183 151 134 135 179 238 264 279 304 293 284 122 120 141 165 168 174 184 192 204 226 250 270 285 294 299 304 309 314 317 318 318 317 314 312 308 306 303 302 300 299
182 184 183 182 183 186 193 198 199 197 194 188 188 191 196 194 186 176 170 172 170 163 155 151 147 144 142 140 137 136 142 150 161 172 190 222 317 344 347 346 343 338 332 327 322 319 316 315 313 313 313 313 311 308 307 306 309 312 312 313 302 225 185 168 154 149 176 201 254 281 8 64 107 116 124 124 130 153 177 196 211 226 244 264 278 286 292 298 301 305 310 313 315 317 317 316 313 311 308 305 303 302 302
185 185 184 184 186 191 197 203 205 202 197 191 189 193 197 193 185 177 177 179 174 167 161 156 152 149 147 146 145 148 160 173 189 209 224 252 284 312 321 324 322 319 316 315 314 314 312 311 311 312 312 312 310 308 306 307 309 312 313 309 268 194 186 178 167 161 177 170 154 131 117 120 130 137 145 151 157 172 192 207 222 239 257 273 283 289 294 297 300 304 308 311 313 315 316 315 314 313 311 308 307 305 305
188 188 187 188 190 195 200 206 209 207 201 193 192 195 196 191 185 182 184 182 177 173 169 164 159 156 153 152 154 161 174 188 203 220 239 259 277 293 302 305 308 308 309 310 310 310 310 310 311 312 313 314 311 308 304 308 311 312 311 300 204 182 185 179 166 162 189 183 173 166 160 141 148 165 187 208 228 234 233 235 244 259 273 283 289 293 296 299 301 304 307 310 312 313 314 313 313 313 312 312 311 310 310
192 192 192 193 195 198 200 206 211 211 205 197 196 197 194 188 185 186 187 185 181 179 177 174 171 167 165 164 167 173 183 196 212 227 245 262 277 286 293 299 302 304 306 307 308 308 309 310 312 314 315 316 310 304 302 308 311 308 301 251 177 176 187 186 177 171 190 194 201 204 197 194 206 224 233 247 260 269 269 269 272 279 285 289 293 296 298 300 303 305 308 310 311 311 312 311 311 311 312 313 314 315 316
197 198 197 198 200 201 202 205 209 209 203 198 199 200 193 185 186 190 190 188 185 184 183 182 181 181 180 181 183 189 197 208 222 236 250 264 276 285 292 298 301 303 305 306 306 308 310 312 314 316 317 316 306 299 300 306 306 299 279 220 187 182 188 190 188 189 195 202 211 220 227 236 249 262 265 269 273 277 280 281 283 286 288 290 292 295 298 301 304 307 309 311 312 312 311 311 310 310 312 314 317 318 320
202 202 202 203 204 204 205 207 207 205 201 196 199 201 193 188 190 193 193 192 190 189 189 189 190 191 192 195 200 205 211 220 232 246 258 269 278 286 292 297 300 302 303 305 307 310 313 315 317 318 318 314 303 297 300 303 301 288 261 222 202 193 189 189 196 203 210 216 223 231 242 250 259 267 273 276 279 281 283 283 284 286 288 290 292 294 297 300 303 307 310 314 316 316 315 313 312 312 314 316 318 321 322
207 207 207 208 207 207 209 211 211 208 202 198 199 200 194 194 195 197 197 197 196 197 197 197 197 199 200 205 211 216 221 230 241 253 263 272 279 286 291 295 298 301 303 306 309 313 316 319 319 320 317 312 302 298 301 301 295 280 255 227 210 203 203 204 208 215 220 227 234 241 250 257 263 269 274 278 281 283 283 284 285 286 287 290 293 296 298 301 304 307 312 316 319 320 319 318 317 316 317 319 321 322 323
213 212 212 212 212 211 211 213 215 213 206 201 201 200 198 199 199 199 200 200 201 202 204 205 205 206 206 211 217 222 228 236 244 254 264 272 278 283 288 293 297 302 306 309 313 317 319 320 320 319 316 310 302 299 301 297 290 275 253 233 218 211 211 212 218 223 228 235 241 248 255 261 266 271 275 279 281 283 284 286 288 289 290 292 296 300 302 305 306 310 315 318 321 322 322 322 321 320 320 321 322 323 323
217 217 217 216 216 215 213 216 218 217 211 206 203 203 202 203 203 203 203 203 204 206 208 210 211 211 212 215 219 225 231 237 244 252 259 267 274 281 287 293 300 304 308 312 316 319 320 321 320 318 314 307 301 298 297 293 285 272 254 240 228 219 215 218 224 230 234 240 246 252 258 263 268 272 276 279 283 285 287 290 291 293 294 297 300 303 306 308 311 314 317 320 322 323 323 323 322 322 322 322 323 324 324
216 218 220 219 219 218 217 218 220 219 216 211 207 206 206 207 207 206 205 205 205 207 210 212 213 214 215 217 221 225 230 235 241 247 254 263 272 281 289 296 302 307 311 315 317 319 320 319 318 315 310 303 297 293 291 288 280 269 256 246 238 231 227 229 232 236 240 245 250 255 260 265 270 274 278 283 287 290 291 293 295 297 299 301 303 306 309 312 315 318 321 322 323 323 323 323 322 321 321 322 323 324 324
215 218 221 222 221 220 220 220 221 222 220 215 211 210 210 211 211 210 208 207 207 209 210 212 213 215 216 218 221 225 229 233 237 243 251 260 271 282 290 297 303 308 312 315 317 318 318 316 313 309 304 298 291 288 287 283 277 268 259 251 246 241 238 238 239 242 245 250 254 259 263 268 272 277 283 288 292 294 296 298 299 301 302 304 307 310 313 316 319 322 323 324 323 322 322 321 321 320 321 322 323 323 323
216 217 221 223 223 222 221 222 222 222 222 218 215 214 214 214 214 214 212 211 210 211 212 213 214 215 217 219 222 226 230 234 238 243 250 261 271 282 290 296 302 306 310 313 315 315 314 312 308 304 298 292 287 283 282 279 275 267 261 255 252 250 247 247 247 248 250 254 258 263 268 271 276 281 286 291 295 298 300 302 303 305 306 308 311 314 316 318 321 323 324 324 323 323 322 321 321 320 321 322 322 322 322
220 220 222 225 226 225 224 223 223 223 223 221 219 218 217 217 217 217 215 213 213 213 214 216 217 217 218 220 224 228 232 236 240 246 251 260 270 279 286 293 298 303 307 309 311 312 310 307 303 298 293 287 282 280 279 276 272 266 261 257 256 255 254 253 252 253 255 258 261 266 270 275 279 284 288 293 296 299 302 304 306 307 309 311 314 316 318 320 322 324 324 324 324 324 324 323 323 323 323 323 323 322 321
225 224 225 227 228 228 227 226 225 224 224 222 222 222 221 220 219 219 217 215 215 215 216 218 219 220 221 222 226 230 232 237 242 247 253 259 267 275 282 288 294 300 304 306 308 308 306 302 298 293 288 283 279 276 275 274 270 265 261 258 257 257 257 257 257 257 258 261 264 267 271 275 280 284 288 291 295 298 301 303 305 307 309 311 314 317 319 322 324 325 325 325 325 325 325 325 325 325 326 326 325 323 322
229 229 229 229 229 230 230 229 228 227 226 224 224 224 224 222 221 220 218 217 216 216 217 219 221 222 223 224 227 229 233 238 243 248 253 258 264 271 277 284 291 296 300 303 305 305 303 299 294 289 284 280 275 273 272 271 268 264 260 258 257 257 257 257 258 259 260 262 265 268 272 276 279 283 287 290 293 296 298 300 302 305 306 309 312 315 318 321 324 325 325 325 325 325 325 326 326 328 328 328 327 326 325
232 232 231 231 231 232 233 232 231 230 229 227 226 226 226 224 223 221 219 217 217 217 218 220 221 223 224 225 227 229 232 237 243 248 252 256 261 267 273 279 286 293 298 301 303 303 300 297 292 286 281 276 273 271 269 268 266 263 259 257 256 256 256 256 257 259 260 262 265 268 272 275 279 282 285 288 291 293 295 297 298 301 302 305 308 312 316 320 322 324 325 325 325 324 325 325 327 328 330 331 331 329 328
234 234 234 233 234 234 235 235 234 233 232 230 228 228 227 226 224 222 220 218 218 218 218 220 221 223 225 226 227 229 232 236 241 246 251 254 259 263 269 276 283 290 295 298 301 301 299 295 290 284 279 274 271 268 266 265 264 262 260 257 256 255 255 256 257 258 260 262 264 267 271 274 277 280 283 287 290 291 293 294 295 297 299 303 306 310 314 318 321 324 325 325 325 324 325 325 327 328 330 332 332 331 330
235 236 237 236 236 236 237 237 236 235 234 232 230 230 229 227 225 222 220 218 218 218 219 220 222 224 225 227 228 229 232 235 240 245 249 253 257 261 266 273 280 287 292 295 297 297 297 293 288 282 277 272 268 266 264 263 263 263 261 258 256 255 255 256 257 258 260 262 263 265 268 271 274 278 282 285 288 290 291 293 294 296 298 301 305 310 314 318 321 324 325 325 325 324 323 324 325 327 329 330 331 331 331
237 238 239 239 238 237 238 238 238 237 236 234 232 231 230 229 226 223 220 219 219 220 221 222 223 224 226 228 229 231 232 235 239 243 247 252 255 259 264 270 277 283 288 291 294 295 294 291 287 281 275 270 267 264 263 262 262 262 260 258 256 255 255 256 257 259 259 261 262 263 264 266 270 275 280 284 287 290 291 293 294 295 298 301 305 309 314 318 321 323 324 324 323 322 321 321 322 324 326 328 329 330 330
239 239 240 241 240 239 239 239 239 239 237 235 233 232 231 230 228 224 222 221 221 221 222 223 224 225 227 229 231 232 233 235 239 242 246 250 254 257 262 268 273 279 284 287 290 291 290 287 284 279 273 269 266 264 262 262 261 260 259 257 255 255 255 256 257 258 259 259 259 259 260 263 267 273 279 284 287 290 292 293 294 296 298 301 305 309 313 317 320 321 323 323 321 319 318 318 319 321 323 325 327 328 328
241 240 240 241 242 242 241 241 240 240 239 237 234 233 233 232 230 226 223 222 222 222 223 224 225 226 227 229 231 233 234 236 239 241 245 249 252 256 260 264 270 276 280 284 286 287 286 284 281 277 272 268 265 263 262 262 260 259 257 256 254 254 255 256 257 258 257 257 256 255 257 260 266 273 279 283 286 289 291 292 294 295 297 299 302 307 310 314 316 318 319 319 318 316 315 314 315 317 319 322 324 325 326
242 241 240 241 242 242 243 243 242 241 241 238 236 234 234 233 231 228 224 223 223 223 224 224 226 227 228 229 231 233 234 236 239 241 245 248 252 255 258 262 267 272 276 280 283 284 283 281 278 274 270 266 264 263 262 262 260 259 257 256 254 254 254 255 256 256 254 253 252 252 255 260 267 274 280 283 285 286 288 288 289 291 292 295 298 302 306 309 312 313 314 314 314 313 312 311 312 314 316 319 321 322 323
242 241 240 240 240 241 243 244 243 242 242 240 238 236 234 234 232 230 226 225 224 224 224 225 226 227 228 229 231 232 234 235 238 241 245 248 251 254 257 259 264 268 273 277 279 280 280 278 275 272 268 265 263 262 262 262 260 259 258 257 256 255 254 254 254 253 251 249 248 250 253 260 269 276 281 283 284 284 283 284 284 285 287 289 292 297 301 304 306 308 309 310 310 309 309 308 309 311 313 316 318 319 320
241 242 241 241 241 241 243 244 244 244 243 241 239 236 235 234 233 232 229 227 226 225 225 225 227 228 230 230 231 233 234 236 238 242 245 248 251 254 256 258 261 265 270 274 276 277 277 275 273 269 265 263 262 262 261 261 260 259 258 257 257 257 255 254 252 250 248 246 246 248 253 261 270 278 282 284 284 283 282 282 282 282 284 286 289 293 297 300 302 304 305 306 306 306 306 306 306 308 310 313 315 316 317
241 242 242 242 242 242 244 243 245 246 244 242 239 237 235 234 234 233 231 229 228 227 226 226 227 229 231 231 232 234 236 237 239 242 246 249 251 254 255 257 260 263 267 271 273 274 274 273 270 267 264 262 261 260 260 260 259 258 258 258 258 258 257 255 251 248 245 244 245 248 254 262 271 279 283 285 284 283 282 282 282 283 284 286 289 293 296 298 300 302 303 304 304 304 304 304 304 305 308 310 312 313 314
241 242 243 243 244 245 247 245 246 248 246 243 240 238 236 235 235 234 232 231 230 229 228 227 228 229 231 233 233 234 237 238 240 242 246 249 252 253 254 256 259 262 265 268 271 272 272 271 269 266 263 261 259 258 258 258 258 257 257 257 258 258 258 255 252 248 245 244 244 248 254 263 272 279 284 286 285 285 284 284 284 285 286 289 291 293 296 298 300 301 302 303 303 303 302 302 302 304 305 308 309 311 312
243 243 244 244 245 247 249 249 250 250 247 244 241 239 237 235 235 235 234 233 232 231 229 228 228 229 232 233 234 235 237 239 240 242 246 250 252 253 254 255 257 260 263 266 268 269 269 269 267 265 262 259 256 255 255 255 255 255 256 256 257 257 258 256 253 249 246 244 245 249 255 264 273 280 284 286 287 287 287 287 287 288 289 290 292 294 295 297 299 300 301 302 302 302 301 301 301 302 304 306 307 309 310
243 244 244 245 246 247 249 252 253 251 248 244 242 240 238 236 235 235 235 235 234 233 231 230 229 230 232 234 235 237 238 240 241 243 246 250 252 252 253 254 256 259 262 264 266 267 267 266 265 263 260 257 255 254 253 253 254 254 255 255 255 256 257 256 254 250 248 246 247 250 256 264 272 279 283 286 287 287 287 287 287 287 288 289 290 291 293 294 296 297 298 299 299 300 300 300 300 301 302 304 305 306 307
243 244 245 246 247 248 250 254 255 253 249 245 243 241 239 236 235 235 236 237 236 235 233 232 231 230 232 234 236 238 239 241 241 243 246 250 252 252 252 253 255 258 261 263 264 264 264 264 263 261 258 255 253 252 252 251 252 253 254 254 253 254 256 256 254 252 249 248 249 252 257 264 271 277 281 283 285 284 284 284 284 284 285 286 286 288 289 290 292 293 294 295 296 297 297 298 298 299 299 300 302 303 303
245 245 246 248 248 250 252 255 256 254 251 247 244 242 240 237 236 235 236 238 238 237 235 234 232 231 232 233 235 237 239 240 241 243 246 249 251 252 253 254 255 257 259 261 262 262 262 262 261 259 257 254 252 251 250 250 251 252 252 252 253 253 254 255 254 253 251 250 250 252 257 262 268 273 277 279 280 281 281 281 281 281 281 282 283 284 285 286 288 289 291 292 292 293 294 295 295 296 296 297 298 298 298
246 247 248 249 250 252 253 256 257 256 253 249 246 244 242 240 238 238 238 239 240 240 238 236 234 233 233 234 235 236 238 240 241 243 246 249 251 252 253 254 255 256 257 258 260 260 260 260 259 257 256 254 252 250 249 249 250 250 251 252 252 252 252 253 253 252 251 251 251 253 256 260 264 268 272 274 275 276 277 278 278 279 279 280 281 281 283 284 285 287 288 288 289 290 291 291 292 293 293 294 294 293 293
247 248 249 250 251 252 254 256 257 257 256 253 249 247 245 243 242 241 240 241 242 242 241 240 237 235 234 235 235 236 237 239 240 242 246 249 251 252 252 253 254 256 256 257 258 259 259 258 257 256 254 252 251 250 249 249 249 249 250 251 251 250 250 250 250 250 250 251 251 253 255 258 261 264 267 269 271 272 274 275 276 277 278 278 279 280 282 284 285 287 287 288 288 288 288 288 289 290 291 291 292 291 290
249 249 250 250 251 252 254 255 257 257 257 255 253 250 248 246 244 243 241 241 242 243 242 241 239 237 236 237 237 237 236 237 239 241 244 246 248 251 253 254 254 255 256 256 257 257 257 256 256 255 253 252 251 250 249 248 248 249 250 250 250 250 249 249 248 249 249 250 251 251 253 256 259 261 264 266 268 269 270 272 274 276 277 278 279 281 283 285 287 289 290 289 289 288 287 287 287 288 288 289 289 289 288
250 250 251 251 252 253 254 255 256 257 257 256 255 251 248 246 245 243 241 240 241 242 243 243 241 239 237 238 238 238 236 236 237 239 241 244 245 245 246 250 254 256 257 257 256 255 255 255 255 254 253 253 252 250 249 248 248 248 249 249 249 250 249 248 248 248 249 249 250 251 252 254 257 259 262 263 265 266 268 270 272 274 276 278 280 282 285 288 290 292 293 293 292 291 289 288 287 287 287 287 288 287 287
251 251 251 251 252 253 254 255 256 257 257 256 255 252 248 245 244 243 241 239 240 242 244 244 243 241 238 238 239 239 238 237 236 237 239 241 242 242 242 244 248 254 260 260 257 254 251 252 253 254 253 252 252 250 249 248 247 247 248 249 249 249 249 248 248 248 249 249 249 250 251 253 255 257 260 262 263 265 267 269 271 273 275 278 281 284 287 290 294 296 296 296 295 294 293 291 289 288 287 286 286 286 286
252 251 250 251 252 253 254 255 256 257 257 255 254 252 249 246 245 244 242 239 239 241 243 244 244 242 240 239 239 240 239 238 237 237 238 238 239 241 243 241 240 239 237 232 248 255 253 250 249 250 251 252 251 250 249 247 247 247 248 248 248 249 249 249 249 249 249 249 249 250 251 252 254 256 259 261 263 265 267 269 271 274 276 279 283 286 290 293 296 298 298 298 298 297 296 294 292 291 289 287 286 285 283
255 252 250 251 251 252 254 255 256 257 257 256 255 253 251 248 247 246 244 241 240 240 242 243 244 243 241 240 240 240 240 238 237 237 238 239 238 238 237 236 234 230 226 224 229 244 251 249 248 248 250 250 250 250 250 248 248 248 248 248 248 249 250 249 249 248 248 248 249 250 251 252 254 256 258 261 263 265 267 270 272 275 278 281 285 288 292 295 298 298 299 298 298 298 297 296 295 293 291 288 286 283 280
259 256 253 251 251 252 254 256 257 258 258 257 256 254 252 250 249 248 247 245 243 243 242 243 243 243 241 240 240 240 240 239 238 237 238 239 239 238 233 232 232 233 235 235 238 244 246 240 241 247 251 250 248 248 249 249 249 249 249 248 248 249 250 249 248 247 247 248 249 250 251 253 254 256 259 261 263 266 268 270 273 275 278 282 286 289 292 295 298 298 299 299 298 298 298 297 295 293 291 289 285 282 278
262 260 257 253 251 252 254 255 257 258 258 258 257 256 253 250 249 249 249 248 247 245 244 243 243 243 243 242 241 241 241 240 238 237 238 238 239 238 236 231 227 227 231 233 237 240 239 231 229 238 252 253 249 246 247 249 250 250 250 249 249 250 250 250 248 247 248 249 250 250 251 253 255 257 259 261 264 266 268 270 273 276 279 282 285 289 292 295 297 298 299 298 298 298 297 296 294 292 291 288 285 282 279
263 262 260 257 253 252 253 254 256 257 258 258 257 257 256 252 249 247 247 248 247 246 245 244 243 244 244 244 243 242 242 242 240 238 237 238 238 239 239 237 233 227 225 227 233 236 234 236 227 223 249 257 253 247 247 250 251 252 251 251 250 250 250 250 249 249 249 250 250 251 251 253 254 256 259 261 263 266 268 270 273 276 279 282 286 289 292 295 297 298 297 297 298 298 297 295 293 291 289 287 284 282 279
263 263 262 259 256 253 252 253 255 256 257 258 258 258 258 256 252 248 246 246 246 246 245 244 244 244 244 244 244 243 243 243 242 240 238 238 238 239 240 241 242 241 235 234 234 235 235 238 231 224 238 254 256 252 249 250 251 251 251 251 250 250 249 249 249 250 250 251 251 251 252 253 255 257 259 261 263 265 268 270 273 275 279 283 286 289 292 294 295 296 295 296 296 297 296 294 292 290 287 285 282 281 280
263 263 262 261 258 255 253 253 255 256 258 258 258 258 259 259 257 252 247 244 244 244 244 244 243 243 244 244 243 243 243 244 244 242 240 239 238 239 240 241 243 244 244 241 239 239 242 242 238 234 233 242 253 255 253 251 249 249 249 250 250 249 248 248 249 249 250 250 251 252 253 255 256 258 260 262 264 266 268 270 273 276 279 283 286 289 291 293 294 294 294 294 295 295 295 294 292 289 287 284 283 282 281
263 263 262 261 260 258 256 255 256 257 259 261 260 259 258 259 260 257 251 246 243 242 243 243 243 243 243 243 243 243 243 244 245 244 242 241 240 239 239 241 243 244 244 243 243 243 244 244 243 241 239 240 244 250 255 254 251 249 249 249 249 248 248 247 247 248 249 250 251 252 254 256 257 259 261 264 266 268 270 272 274 277 280 283 286 289 291 292 293 293 292 292 293 294 294 293 292 289 287 285 284 283 282
264 263 262 261 261 261 259 257 257 259 262 264 264 263 261 260 260 259 256 250 245 242 241 242 242 242 242 242 243 244 245 245 245 245 244 243 242 241 240 241 243 244 245 244 243 243 244 246 247 247 246 245 244 245 249 253 252 251 250 250 250 249 248 248 247 248 248 250 251 252 254 256 258 260 262 264 266 269 271 273 275 277 280 283 286 288 290 291 292 291 291 291 292 293 293 292 291 289 287 285 284 283 283